DW3212 Weather Reports


time (UTC)temp
F
wind
direction
speed
knots
gust
knots
rain 1hr
in
rain 24hr
in
rain mn
in
humidity
%
barometer
mb
20260509094556 32 0.0 0.0 0.00 0.00 0.00 81 1012.2
20260509093055 33 0.0 0.0 0.00 0.00 0.00 82 1012.4
20260509091559 33 0.0 0.0 0.00 0.00 0.00 79 1012.3
20260509090108 34 0.0 0.0 0.00 0.00 0.00 73 1012.3
20260509084602 34 0.0 0.0 0.00 0.00 0.00 71 1012.2
20260509083100 33 0.0 0.0 0.00 0.00 0.00 68 1011.9
20260509081600 33 0.0 0.0 0.00 0.00 0.00 70 1011.9
20260509080100 33 0.0 0.0 0.00 0.00 0.00 71 1011.8
20260509074556 33 0.0 0.0 0.00 0.00 0.00 76 1011.8
20260509073056 34 0.0 0.0 0.00 0.00 0.00 76 1011.7
20260509071600 33 0.0 0.0 0.00 0.00 0.00 76 1011.6
20260509070057 34 0.0 0.0 0.00 0.00 0.00 77 1011.9
20260509064602 33 0.0 0.0 0.00 0.00 0.00 79 1011.9
20260509063111 33 0.0 0.0 0.00 0.00 0.00 82 1011.8
20260509061604 33 0.0 0.0 0.00 0.00 0.00 83 1012.0
20260509060100 33 0.0 0.0 0.00 0.00 0.00 83 1012.2
20260509054606 33 0.0 0.0 0.00 0.00 0.00 83 1012.3
20260509053133 33 0.0 0.0 0.00 0.00 0.00 82 1012.3
20260509051557 33 0.0 0.0 0.00 0.00 0.00 81 1012.3
20260509050057 34 0.0 0.0 0.00 0.00 0.00 79 1012.3
20260509044554 36 0.0 0.0 0.00 0.00 0.00 74 1012.2
20260509043107 36 0.0 0.0 0.00 0.00 0.00 71 1012.0
20260509041602 36 0.0 0.0 0.00 0.00 0.00 72 1011.9
20260509040109 37 0.0 0.0 0.00 0.00 0.00 71 1011.8
20260509034604 38 0.0 0.0 0.00 0.00 0.00 69 1011.7
20260509033054 38 0.0 0.0 0.00 0.00 0.00 70 1011.8
20260509031605 38 0.0 0.0 0.00 0.00 0.00 71 1011.8
20260509030056 38 0.0 0.0 0.00 0.00 0.00 70 1011.8
20260509024554 39 0.0 0.0 0.00 0.00 0.00 70 1011.6
20260509023057 39 0.0 0.0 0.00 0.00 0.00 71 1011.6
20260509021600 38 0.0 0.0 0.00 0.00 0.00 73 1011.5
20260509020056 36 0.0 0.0 0.00 0.00 0.00 76 1011.3
20260509014600 37 0.0 0.0 0.00 0.00 0.00 74 1011.1
20260509013103 38 0.0 0.0 0.00 0.00 0.00 73 1010.9
20260509011558 37 0.0 0.0 0.00 0.00 0.00 74 1010.9
20260509010058 39 0.0 0.0 0.00 0.00 0.00 70 1010.7
20260509004601 39 0.0 0.0 0.00 0.00 0.00 69 1010.3
20260509003101 40 0.0 0.0 0.00 0.00 0.00 68 1010.2
20260509001558 40 0.0 0.0 0.00 0.00 0.00 67 1010.1
20260509000059 41 0.0 0.0 0.00 0.00 0.00 66 1010.0
20260508234557 41 0.0 0.0 0.00 0.00 0.00 66 1009.9
20260508233106 42 0.0 0.0 0.00 0.00 0.00 64 1009.8
20260508231556 42 0.0 0.0 0.00 0.00 0.00 64 1009.6
20260508224555 42 0.0 0.0 0.00 0.00 0.00 66 1009.4
20260508223054 42 0.0 0.0 0.00 0.00 0.00 68 1009.4
20260508221555 42 0.0 0.0 0.00 0.00 0.00 66 1009.5
20260508220100 43 0.0 0.0 0.00 0.00 0.00 66 1009.4
20260508214559 43 0.0 0.0 0.00 0.00 0.00 68 1009.3
20260508213055 43 0.0 0.0 0.00 0.00 0.00 63 1009.2
20260508211556 43 0.0 0.0 0.00 0.00 0.00 67 1009.2
20260508204556 44 0.0 0.0 0.00 0.00 0.00 63 1009.0
20260508203102 46 0.0 0.0 0.00 0.00 0.00 53 1008.7
20260508201556 46 0.0 0.0 0.00 0.00 0.00 53 1008.4
20260508200058 46 0.0 0.0 0.00 0.00 0.00 52 1008.4
20260508194556 47 0.0 0.0 0.00 0.00 0.00 52 1008.5
20260508193112 48 0.0 0.0 0.00 0.00 0.00 52 1008.4
20260508191608 47 0.0 0.0 0.00 0.00 0.00 54 1008.3
20260508190059 46 0.0 0.0 0.00 0.00 0.00 55 1008.6
20260508184557 43 0.0 0.0 0.00 0.00 0.00 55 1008.9
20260508183056 45 0.0 0.0 0.00 0.00 0.00 57 1009.1
20260508181559 46 0.0 0.0 0.00 0.00 0.00 55 1009.0
20260508180057 46 0.0 0.0 0.00 0.00 0.00 54 1008.8
20260508174556 47 0.0 0.0 0.00 0.00 0.00 49 1008.8
20260508173059 46 0.0 0.0 0.00 0.00 0.00 54 1008.9
20260508171606 44 0.0 0.0 0.00 0.00 0.00 55 1009.0
20260508170101 44 0.0 0.0 0.00 0.00 0.00 55 1009.0
20260508164557 44 0.0 0.0 0.00 0.00 0.00 58 1009.0
20260508163058 44 0.0 0.0 0.00 0.00 0.00 48 1009.0
20260508161556 44 0.0 0.0 0.00 0.00 0.00 51 1008.9
20260508160058 44 0.0 0.0 0.00 0.00 0.00 48 1008.9
20260508154600 46 0.0 0.0 0.00 0.00 0.00 50 1008.8
20260508153056 45 0.0 0.0 0.00 0.00 0.00 49 1008.8
20260508151558 46 0.0 0.0 0.00 0.00 0.00 49 1008.7
20260508150057 45 0.0 0.0 0.00 0.00 0.00 52 1008.6
20260508144555 45 0.0 0.0 0.00 0.00 0.00 47 1008.4
20260508143104 45 0.0 0.0 0.00 0.00 0.00 50 1008.5
20260508141558 44 0.0 0.0 0.00 0.00 0.00 53 1008.5
20260508140101 44 0.0 0.0 0.00 0.00 0.00 50 1008.7
20260508134559 44 0.0 0.0 0.00 0.00 0.00 51 1008.8
20260508133056 44 0.0 0.0 0.00 0.00 0.00 51 1009.0
20260508131603 43 0.0 0.0 0.00 0.00 0.00 59 1009.0
20260508130111 43 0.0 0.0 0.00 0.00 0.00 62 1009.0
20260508124558 40 0.0 0.0 0.00 0.00 0.00 64 1008.8
20260508123105 38 0.0 0.0 0.00 0.00 0.00 71 1009.0
20260508121607 36 0.0 0.0 0.00 0.00 0.00 74 1009.2
20260508120058 35 0.0 0.0 0.00 0.00 0.00 75 1009.2
20260508114557 35 0.0 0.0 0.00 0.01 0.00 72 1009.2
20260508113102 35 0.0 0.0 0.00 0.01 0.00 70 1009.1
20260508111557 35 0.0 0.0 0.00 0.01 0.00 69 1008.9
20260508110057 35 0.0 0.0 0.00 0.01 0.00 69 1008.8
20260508104621 35 0.0 0.0 0.00 0.01 0.00 68 1008.6
20260508103056 35 0.0 0.0 0.00 0.01 0.00 67 1008.4
20260508101554 34 0.0 0.0 0.00 0.01 0.00 68 1008.2
20260508100057 34 0.0 0.0 0.00 0.01 0.00 69 1007.9